SCD 1 1 22490U 93009B 21021.68893927 .00000218 00000-0 93979-5 0 9999 2 22490 24.9695 128.1368 0042939 172.0961 335.7092 14.44596346475546 TECHSAT 1B 1 25397U 98043D 21021.80399640 -.00000018 00000-0 11397-4 0 9990 2 25397 98.7549 327.8950 0002031 120.6051 239.5328 14.23699645170622 SCD 2 1 25504U 98060A 21021.60224870 .00000213 00000-0 91364-5 0 9998 2 25504 24.9971 340.1110 0017219 185.8617 335.2123 14.44112533174858 LANDSAT 7 1 25682U 99020A 21021.90960419 .00000021 00000-0 14457-4 0 9995 2 25682 98.0542 83.8070 0001006 97.6086 262.5214 14.57188233158055 TUBSAT 1 25757U 99029B 21021.83023583 -.00000009 00000-0 91982-5 0 9997 2 25757 98.4424 316.0031 0013396 239.0322 120.9556 14.51434010147065 QUIKSCAT 1 25789U 99034A 21021.85028233 .00000033 00000-0 20614-4 0 9996 2 25789 98.5430 239.3500 0098954 182.9701 177.0918 14.49430187126639 TERRA 1 25994U 99068A 21021.83516383 .00000034 00000-0 17471-4 0 9995 2 25994 98.1925 98.8401 0001332 98.3161 13.7243 14.57121421121992 MAROC TUBSAT 1 27004U 01056D 21021.87722510 -.00000035 00000-0 10351-4 0 9996 2 27004 99.5455 159.3369 0020026 169.5412 305.4046 13.70144316956086 AQUA 1 27424U 02022A 21021.70505939 .00000089 00000-0 29855-4 0 9999 2 27424 98.2153 325.1435 0002313 55.4552 350.9023 14.57117553995652 IRS P6 1 28051U 03046A 21021.93420703 .00000001 00000-0 15254-4 0 9995 2 28051 98.4632 100.2711 0059405 98.3162 262.4754 14.34166901897700 TANSUO 1 1 28220U 04012A 21021.87559792 .00001008 00000-0 85484-4 0 9991 2 28220 97.8739 359.1650 0014404 255.6719 104.2905 15.00223545913344 ROCSAT 2 1 28254U 04018A 21021.84478670 -.00000183 00000-0 -94881-4 0 9992 2 28254 98.7001 51.1600 0003021 103.3921 70.1780 14.00725595852619 AURA 1 28376U 04026A 21021.83920124 .00000094 00000-0 30871-4 0 9999 2 28376 98.2158 327.4370 0001155 71.9726 288.1598 14.57110511878720 CARTOSAT-1 1 28649U 05017A 21021.74022136 .00000008 00000-0 72249-5 0 9990 2 28649 97.7882 91.6772 0002835 91.8794 268.2745 14.83750910850858 SINAH 1 1 28893U 05043D 21021.86750070 .00000001 00000-0 95408-5 0 9993 2 28893 98.0483 152.1134 0014724 342.1522 17.9161 14.61555063812224 EROS B 1 29079U 06014A 21021.88554112 .00001701 00000-0 76030-4 0 9997 2 29079 97.3900 144.4297 0006200 274.9050 200.7419 15.22667096818489 RESURS DK-1 1 29228U 06021A 21021.16890168 .00000095 00000-0 14442-4 0 9990 2 29228 69.9365 353.7232 0002907 172.3647 187.7558 15.02631344805425 KOMPSAT 2 1 29268U 06031A 21021.80714216 .00000101 00000-0 28891-4 0 9996 2 29268 97.9605 266.5064 0017098 180.7615 179.3569 14.62331052773124 LAPAN-TUBSAT 1 29709U 07001A 21021.88762407 .00000016 00000-0 86711-5 0 9998 2 29709 97.8929 344.0848 0014076 117.7302 242.5344 14.82258257758720 CARTOSAT 2AT 1 29710U 07001B 21021.74177624 .00001483 00000-0 49476-4 0 9991 2 29710 97.8902 97.4191 0172814 35.2665 325.9858 15.19805094758357 HAIYANG 1B 1 31113U 07010A 21021.81940016 -.00000025 00000-0 64829-5 0 9994 2 31113 98.3775 62.5944 0012696 288.2768 71.7033 14.30259378719139 SKYMED 1 1 31598U 07023A 21021.80684442 .00000182 00000-0 29380-4 0 9997 2 31598 97.8836 207.7941 0001433 91.4920 268.6470 14.82157347737175 TERRA SAR X 1 31698U 07026A 21021.91457167 -.00000075 00000-0 -35691-6 0 9992 2 31698 97.4454 31.8079 0001809 69.9794 20.8060 15.19151254754468 WORLDVIEW 1 1 32060U 07041A 21021.81187206 .00000858 00000-0 37670-4 0 9990 2 32060 97.3675 144.0124 0000879 98.5927 261.5410 15.24595955742440 YAOGAN 3 1 32289U 07055A 21021.79561309 -.00000226 00000-0 -22288-4 0 9995 2 32289 97.9826 41.8149 0001561 84.2840 275.8557 14.81059026713302 SKYMED 2 1 32376U 07059A 21021.77306153 -.00000287 00000-0 -29499-4 0 9996 2 32376 97.8834 207.7617 0001347 90.7953 269.3378 14.82156990709919 RADARSAT 2 1 32382U 07061A 21021.80355426 .00000363 00000-0 15748-3 0 9991 2 32382 98.5771 31.1851 0001433 76.2456 96.5955 14.29989524684175 CARTOSAT 2A 1 32783U 08021A 21021.77166680 -.00000125 00000-0 -10007-4 0 9993 2 32783 97.8940 83.9968 0013125 29.3708 330.8223 14.78704149687407 JASON 2 1 33105U 08032A 21021.87137613 -.00000061 00000-0 62000-5 0 9998 2 33105 66.0369 237.9776 0007816 272.5383 101.8437 12.87620268589791 RAPIDEYE 2 1 33312U 08040A 21021.72362585 .00000535 00000-0 52521-4 0 9990 2 33312 97.6669 88.5617 0012244 19.9225 340.2472 14.96172524670379 RAPIDEYE 5 1 33313U 08040B 21021.73784711 .00000062 00000-0 10944-4 0 9999 2 33313 97.6639 86.7275 0013430 244.8182 115.1646 14.94459919670316 RAPIDEYE 1 1 33314U 08040C 21021.71743979 .00000329 00000-0 35242-4 0 9993 2 33314 97.6863 88.8179 0026695 12.5709 347.6171 14.94901643670359 RAPIDEYE 3 1 33315U 08040D 21021.74115553 .00000074 00000-0 11326-4 0 9992 2 33315 97.6698 88.1370 0003025 352.3412 7.7763 14.97417782670417 RAPIDEYE 4 1 33316U 08040E 21021.74177139 -.00000027 00000-0 26378-5 0 9994 2 33316 97.6739 87.5248 0005644 270.7349 89.3225 14.95552673670340 HJ-1A 1 33320U 08041A 21021.80342583 .00000195 00000-0 34444-4 0 9991 2 33320 97.7578 71.8563 0025563 78.1933 282.2131 14.77107921666835 HJ-1B 1 33321U 08041B 21021.77224940 .00000112 00000-0 22606-4 0 9990 2 33321 97.7663 74.4072 0036227 110.5626 249.9472 14.77316073666832 GEOEYE 1 1 33331U 08042A 21021.78672842 -.00000047 00000-0 10082-6 0 9996 2 33331 98.1142 98.8814 0010159 89.4887 270.7471 14.64312318661484 THEOS 1 33396U 08049A 21021.82800030 -.00000009 00000-0 16460-4 0 9993 2 33396 98.7103 91.8513 0000844 89.6943 21.2711 14.20027716638052 SKYMED 3 1 33412U 08054A 21021.75618365 -.00000985 00000-0 -11725-3 0 9990 2 33412 97.8833 207.7442 0001449 92.2628 267.8702 14.82153373662379 YAOGAN 4 1 33446U 08061A 21021.81816668 .00000057 00000-0 15100-4 0 9998 2 33446 97.7576 334.5537 0016132 357.2122 2.8996 14.77078334654067 GOSAT (IBUKI) 1 33492U 09002A 21021.84388352 .00000062 00000-0 19339-4 0 9996 2 33492 98.0761 135.5845 0001587 97.9049 262.2336 14.67544856642189 YAOGAN 6 1 34839U 09021A 21021.73534719 .00000728 00000-0 29613-4 0 9996 2 34839 97.0420 23.7853 0026620 326.3335 33.6213 15.27242501653090 DEIMOS 1 1 35681U 09041A 21021.78548131 -.00000099 00000-0 -83988-5 0 9991 2 35681 97.7791 252.2109 0002869 85.0477 275.1056 14.71868144616500 DUBAISAT 1 1 35682U 09041B 21021.88274438 -.00000023 00000-0 38865-5 0 9999 2 35682 97.7410 195.0123 0010105 267.5050 92.4998 14.68847156615189 OCEANSAT 2 1 35931U 09051A 21021.79134649 .00000086 00000-0 32943-4 0 9994 2 35931 98.2961 119.9203 0002804 98.1176 262.0341 14.50860780600080 WORLDVIEW 2 1 35946U 09055A 21021.80471412 -.00000054 00000-0 -34313-5 0 9999 2 35946 98.5019 98.1366 0002469 86.6607 273.4852 14.37707313592393 SMOS 1 36036U 09059A 21021.74700980 .00000066 00000-0 35061-4 0 9993 2 36036 98.4405 211.6342 0001135 92.7909 267.3409 14.39772717589635 YAOGAN 7 1 36110U 09069A 21021.81780077 .00000060 00000-0 16892-4 0 9995 2 36110 98.2467 228.0474 0023301 235.4516 124.4500 14.75452078598709 TANDEM X 1 36605U 10030A 21017.03494506 -.00000991 00000-0 -44019-4 0 9999 2 36605 97.4449 27.0013 0001752 91.3631 330.0064 15.19145197586468 CARTOSAT 2B 1 36795U 10035A 21021.74014555 -.00000066 00000-0 -19991-5 0 9994 2 36795 97.8916 83.4122 0015385 97.2636 263.0322 14.78667965568441 YAOGAN 10 1 36834U 10038A 21021.78386391 .00000034 00000-0 11220-4 0 9994 2 36834 97.9794 29.9439 0001554 77.9457 282.1937 14.81017416565046 SKYMED 4 1 37216U 10060A 21021.92076421 .00000001 00000-0 67356-5 0 9996 2 37216 97.8831 207.9045 0001409 77.7832 282.3537 14.82154139552484 HAIYANG 2A 1 37781U 11043A 21021.82517939 -.00000022 00000-0 21327-4 0 9999 2 37781 99.3169 31.6270 0001515 107.8582 252.2735 13.78725641474888 RASAT 1 37791U 11044D 21021.76003272 .00000058 00000-0 19932-4 0 9991 2 37791 98.1071 117.5199 0020832 304.8320 55.0928 14.64807668504203 MEGHA-TROPIQUES 1 37838U 11058A 21021.73005476 .00000297 00000-0 19128-4 0 9995 2 37838 19.9771 134.8525 0009210 75.2521 284.8904 14.09664628411576 SRMSAT 1 37841U 11058D 21021.59289191 .00000287 00000-0 12286-4 0 9998 2 37841 19.9721 108.6967 0011956 119.6756 15.6160 14.10683364478967 YAOGAN 13 1 37941U 11072A 21021.90293170 .00000496 00000-0 27286-4 0 9990 2 37941 97.5766 323.5500 0002834 51.5212 34.3927 15.18669134507124 PLEIADES 1 1 38012U 11076F 21021.88679577 -.00000031 00000-0 31605-5 0 9997 2 38012 98.1794 99.2166 0001554 96.3727 263.7635 14.58566101484506 ZY 1 1 38038U 11079A 21021.95911894 .00000063 00000-0 37823-4 0 9998 2 38038 98.6606 81.9079 0006738 350.0500 10.0548 14.35294839476115 ZY 3 1 38046U 12001A 21021.91730741 .00000643 00000-0 31791-4 0 9991 2 38046 97.3972 98.6520 0004325 121.5316 356.5242 15.21300600501835 RISAT 1 1 38248U 12017A 21021.77066724 .00000597 00000-0 40318-4 0 9992 2 38248 97.5637 34.3144 0003482 195.5954 164.5169 15.10328966481565 KOMPSAT 3 1 38338U 12025B 21021.14550482 -.00010959 00000-0 -21962-2 0 9998 2 38338 98.1739 322.6709 0011363 170.4092 189.8230 14.61638964463136 KANOPUS-V 1 1 38707U 12039A 21021.88719655 .00000853 00000-0 43368-4 0 9999 2 38707 97.4637 304.1123 0001837 83.7222 344.5377 15.19505894471675 EXACTVIEW-1 1 38709U 12039C 21021.84653041 -.00000009 00000-0 16707-4 0 9994 2 38709 99.0828 68.6141 0011972 88.1276 272.1273 14.24037359441925 SPOT 6 1 38755U 12047A 21021.90195537 -.00000039 00000-0 15399-5 0 9992 2 38755 98.2214 91.3824 0001674 101.0937 259.0444 14.58544643445580 PLEIADES 1B 1 39019U 12068A 21021.78416997 -.00000026 00000-0 41930-5 0 9997 2 39019 98.1779 99.1391 0001382 94.8477 265.2877 14.58562145433345 GOKTURK 2 1 39030U 12073A 21021.94208071 .00000037 00000-0 13320-4 0 9998 2 39030 97.9238 270.5910 0001996 126.2758 233.8641 14.72789288434065 LANDSAT 8 1 39084U 13008A 21021.83654838 .00000038 00000-0 18515-4 0 9992 2 39084 98.2024 94.5501 0001129 93.9317 266.2010 14.57112187410672 SARAL 1 39086U 13009A 21021.80280285 -.00000012 00000-0 11743-4 0 9992 2 39086 98.5413 210.0512 0001012 40.5757 319.5502 14.32042485413254 GAOFEN 1 1 39150U 13018A 21021.80105526 .00000060 00000-0 15782-4 0 9997 2 39150 97.8485 98.8353 0020173 130.2405 230.0564 14.76561082417232 VNREDSAT 1 1 39160U 13021B 21021.77140490 .00000057 00000-0 20318-4 0 9994 2 39160 98.1289 101.3533 0001447 101.6513 258.4847 14.62945184411803 KOMPSAT 5 1 39227U 13042A 21021.95318203 -.00000408 00000-0 -24824-4 0 9998 2 39227 97.6214 209.1827 0001081 77.9131 81.7518 15.04509713407377 YAOGAN 18 1 39363U 13059A 21021.95179272 .00072377 39797-5 25766-3 0 9995 2 39363 97.2193 88.3875 0014963 92.7252 79.9127 15.88850010402227 SKYSAT 1 1 39418U 13066C 21021.75766151 .00000517 00000-0 47227-4 0 9994 2 39418 97.6050 102.3049 0022226 179.9767 180.1461 14.99070572391988 DUBAISAT 2 1 39419U 13066D 21021.77043415 .00000726 00000-0 72645-4 0 9992 2 39419 97.5134 72.8625 0013466 188.4157 171.6835 14.94239217390770 GPM 1 39574U 14009C 21021.77926019 .00003860 00000-0 59760-4 0 9997 2 39574 65.0055 129.0371 0010830 286.3580 73.6375 15.55775383392002 SENTINEL 1A 1 39634U 14016A 21021.77325773 -.00000041 00000-0 91690-6 0 9991 2 39634 98.1815 31.6335 0001322 86.0578 274.0753 14.59199540362402 KAZEOSAT 1 1 39731U 14024A 21021.87878605 -.00007659 00000-0 -23240-2 0 9991 2 39731 98.3464 95.1574 0001168 97.4403 262.5609 14.42018604354364 ALOS 2 1 39766U 14029A 21021.76237377 .00000127 00000-0 23932-4 0 9998 2 39766 97.9211 121.2411 0001516 93.3116 266.8261 14.79474197359977 KAZEOSAT 2 1 40010U 14033A 21021.75521137 .00000037 00000-0 11163-4 0 9999 2 40010 97.7847 277.9133 0014958 315.6609 44.3410 14.82090016356650 HODOYOSHI 4 1 40011U 14033B 21021.72857138 .00000094 00000-0 18652-4 0 9993 2 40011 97.7490 269.0045 0025795 312.2048 47.6977 14.81264903356336 DEIMOS 2 1 40013U 14033D 21021.78983737 .00000222 00000-0 32342-4 0 9991 2 40013 97.8033 285.8569 0001944 43.4063 316.7306 14.84759305357266 HODOYOSHI 3 1 40015U 14033F 21021.63570965 .00000038 00000-0 12080-4 0 9994 2 40015 97.7076 254.2659 0036357 332.0050 27.9205 14.78639507355679 SPOT 7 1 40053U 14034A 21021.79896434 -.00000032 00000-0 29268-5 0 9998 2 40053 98.1569 91.2008 0001569 84.7205 275.4168 14.58570432349502 SKYSAT 2 1 40072U 14037D 21021.81652814 .00000093 00000-0 19452-4 0 9996 2 40072 98.4587 218.2057 0007003 147.0001 213.1649 14.81364898353496 WORLDVIEW 3 1 40115U 14048A 21021.78805309 .00000084 00000-0 16021-4 0 9990 2 40115 97.8588 98.8382 0001291 54.8593 305.2752 14.85186183349200 YAOGAN 21 1 40143U 14053A 21021.92048774 .00000708 00000-0 32538-4 0 9992 2 40143 97.4144 92.4538 0015383 217.6449 256.8012 15.23539850354666 YAOGAN 22 1 40275U 14063A 21021.78374752 -.00000027 00000-0 47166-4 0 9999 2 40275 100.5145 139.8552 0005877 330.3389 29.7388 13.15426212300473 ASNARO 1 40298U 14070A 21021.91540057 .00000764 00000-0 39096-4 0 9990 2 40298 97.4038 106.1008 0001377 101.2478 18.9054 15.19549379344510 HODOYOSHI 1 1 40299U 14070B 21021.87710541 .00000582 00000-0 26537-4 0 9997 2 40299 97.3030 99.3344 0013977 139.7119 331.6632 15.24427297345085 CHUBUSAT 1 1 40300U 14070C 21021.93301013 .00000698 00000-0 32557-4 0 9994 2 40300 97.2642 90.2823 0019769 159.1841 14.0007 15.22895529344757 QSAT-EOS 1 40301U 14070D 21021.88916524 .00001929 00000-0 72820-4 0 9993 2 40301 97.2715 97.1886 0025855 131.4290 348.8011 15.27910892345275 TSUBAME 1 40302U 14070E 21021.88549568 .00000571 00000-0 30404-4 0 9998 2 40302 97.2070 66.8636 0036968 209.4264 323.6237 15.18481004343727 YAOGAN 23 1 40305U 14071A 21021.93449700 .00000613 00000-0 32988-4 0 9991 2 40305 97.5491 326.6344 0002286 91.4868 354.8121 15.18581575342886 CBERS-4 1 40336U 14079A 21021.77741815 -.00000012 00000-0 11096-4 0 9998 2 40336 98.5398 97.5100 0001423 114.8434 245.2896 14.35423772321007 RESURS P2 1 40360U 14087A 21021.88548779 .00000686 00000-0 23197-4 0 9991 2 40360 97.2362 112.3926 0010783 118.1342 348.9867 15.33941674339796 YAOGAN 26 1 40362U 14088A 21021.93549889 .00000776 00000-0 35162-4 0 9998 2 40362 97.2218 88.1687 0012039 84.4874 88.0725 15.23621448338138 SMAP 1 40376U 15003A 21020.27628808 .00000026 00000-0 14085-4 0 9995 2 40376 98.1241 29.6118 0001852 83.7406 276.4014 14.63387436318931 KOMPSAT 3A 1 40536U 15014A 21021.90795432 .00000684 00000-0 43317-4 0 9994 2 40536 97.5663 325.0345 0003085 97.3865 348.5464 15.12258026321734 SENTINEL 2A 1 40697U 15028A 21021.79493475 .00000023 00000-0 25343-4 0 9992 2 40697 98.5658 98.8764 0001309 95.8218 264.3109 14.30818462291685 CARBONITE 1 1 40718U 15032D 21021.91937116 .00000134 00000-0 27279-4 0 9993 2 40718 97.8084 261.4798 0015627 224.4253 135.5707 14.74901560298013 YAOGAN 27 1 40878U 15040A 21021.72935814 -.00000021 00000-0 58662-4 0 9997 2 40878 100.2017 68.5809 0009020 83.8446 276.3688 13.15967851259721 LAPAN A2 1 40931U 15052B 21020.02221672 .00000755 00000-0 16023-4 0 9990 2 40931 5.9986 230.9953 0012935 100.2808 259.8784 14.76659921287321 YAOGAN 28 1 41026U 15064A 21021.93195287 .00000750 00000-0 34463-4 0 9995 2 41026 97.4811 158.7143 0003023 60.1932 54.4723 15.23461675290357 YAOGAN 29 1 41038U 15069A 21021.94898560 .00000023 00000-0 99978-5 0 9994 2 41038 98.0280 15.7752 0000526 75.5648 284.5640 14.80482213278605 KENT RIDGE 1 1 41167U 15077B 21021.96377890 .00000971 00000-0 19093-4 0 9997 2 41167 14.9813 333.7490 0011124 147.2926 265.7719 15.09265146281845 TELEOS 1 1 41169U 15077D 21021.95745518 .00001116 00000-0 26171-4 0 9991 2 41169 14.9829 314.8131 0010015 181.1638 178.8662 15.10833768282015 JASON 3 1 41240U 16002A 21021.80902191 -.00000052 00000-0 41001-4 0 9994 2 41240 66.0404 271.6086 0007328 272.2196 87.7980 12.80931137234454 SENTINEL 3A 1 41335U 16011A 21021.81378294 -.00000018 00000-0 10674-4 0 9995 2 41335 98.6296 91.4303 0000785 102.7454 257.3814 14.26734521256818 SENTINEL 1B 1 41456U 16025A 21021.94420257 -.00000028 00000-0 38715-5 0 9993 2 41456 98.1816 31.6275 0001309 86.0553 274.0800 14.59199679252593 ZY 3 2 1 41556U 16033A 21021.93842910 .00000529 00000-0 26625-4 0 9997 2 41556 97.3426 97.9914 0002404 33.5397 20.7457 15.21331594258131 NUSAT 1 1 41557U 16033B 21021.93829209 .00001419 00000-0 53272-4 0 9991 2 41557 97.3973 116.7788 0014237 40.2764 14.6169 15.28787588259147 NUSAT 2 1 41558U 16033C 21021.88731049 .00001634 00000-0 57279-4 0 9990 2 41558 97.4054 119.8956 0013102 36.3227 73.5614 15.30854273259294 CARTOSAT 2C 1 41599U 16040A 21021.92620516 .00000277 00000-0 16322-4 0 9990 2 41599 97.4211 84.0518 0014329 162.6837 10.0928 15.19248638254268 SKYSAT C1 1 41601U 16040C 21021.80510110 .00001477 00000-0 40875-4 0 9992 2 41601 97.2064 101.9452 0005111 92.6888 267.4943 15.38570338255272 LAPAN A3 1 41603U 16040E 21021.92017497 .00000188 00000-0 11790-4 0 9999 2 41603 97.2793 74.2307 0014086 150.1706 313.1380 15.19947674254323 BIROS 1 41604U 16040F 21021.56902783 .00000534 00000-0 26072-4 0 9995 2 41604 97.2859 78.7393 0013454 132.9885 227.2482 15.22331039254554 3CAT-2 1 41732U 16051B 21021.75527836 .00001444 00000-0 55005-4 0 9991 2 41732 97.3753 303.3563 0011791 312.4739 99.7598 15.28308034247097 SKYSAT C4 1 41771U 16058B 21021.82565951 .00001381 00000-0 38509-4 0 9999 2 41771 97.1858 93.8124 0001397 102.0971 258.0431 15.38432533242230 SKYSAT C5 1 41772U 16058C 21021.93692605 .00000478 00000-0 22414-4 0 9993 2 41772 97.3323 93.2361 0001630 97.9869 75.3822 15.24275927241819 SKYSAT C2 1 41773U 16058D 21021.73490032 .00001406 00000-0 39163-4 0 9993 2 41773 97.1864 94.0563 0001396 82.7992 277.3413 15.38445354242245 SKYSAT C3 1 41774U 16058E 21021.81320222 .00001406 00000-0 39203-4 0 9991 2 41774 97.1860 94.0914 0001428 86.6413 273.4996 15.38424747242245 ALSAT 1B 1 41785U 16059C 21021.73730817 -.00000004 00000-0 83964-5 0 9998 2 41785 97.9829 77.1351 0030900 347.7610 12.2834 14.63384481230822 PATHFINDER 1 1 41787U 16059E 21021.86326173 .00000051 00000-0 18669-4 0 9990 2 41787 97.9870 78.5484 0030384 344.8739 15.1546 14.63779759230893 WORLDVIEW 4 1 41848U 16067A 21021.45833430 .00020655 00000-0 18020-3 0 9993 2 41848 97.7965 153.2893 0005373 95.5156 264.6717 15.69004939230497 GOKTURK-1A 1 41875U 16073A 21021.95604563 .00000034 00000-0 15809-4 0 9990 2 41875 98.1325 279.1741 0001434 77.5309 282.6051 14.62770705220501 RESOURCESAT 2A 1 41877U 16074A 21021.77224127 -.00000075 00000-0 -14132-4 0 9992 2 41877 98.7737 96.7393 0001263 88.6881 271.4440 14.21599351214063 CARTOSAT 2D 1 41948U 17008A 21021.73069036 .00000472 00000-0 25649-4 0 9995 2 41948 97.4637 84.0182 0006529 323.9673 36.1113 15.19233204218109 SENTINEL 2B 1 42063U 17013A 21021.82988645 .00000012 00000-0 21303-4 0 9999 2 42063 98.5672 98.9123 0000954 88.7727 271.3561 14.30817552202604 ZHUHAI-1 02 1 42759U 17034B 21021.92572514 .00000197 00000-0 25300-4 0 9994 2 42759 43.0180 266.5419 0010891 321.2963 152.4595 15.10047317198999 NUSAT-3 1 42760U 17034C 21021.93521289 .00000240 00000-0 27562-4 0 9991 2 42760 43.0163 264.1452 0009792 338.6393 36.5523 15.10583739199032 ZHUHAI-1 01 1 42761U 17034D 21021.85519887 .00000196 00000-0 25203-4 0 9994 2 42761 43.0184 266.0829 0011333 322.2120 133.3519 15.10127890198982 CARTOSAT 2E 1 42767U 17036C 21021.93975607 .00000430 00000-0 23556-4 0 9997 2 42767 97.3946 82.4748 0009860 6.1432 353.9921 15.19269580198701